Home > Weather > Mersin > Past weeks

Flag for Turkey Past Weather in Mersin, Turkey — Yesterday and Last 2 Weeks

Now
79 °F

Scattered clouds.


Feels Like: 81 °F
Forecast: 70 / 89 °F
Wind: 5 mph from South

Location: Adana / Sakirpasa

Current Time: Jun 28, 2016 at 9:12:36 AM

Latest Report: Jun 28, 2016 at 8:20 AM


Visibility: N/A

Pressure: 29.65 "Hg

Humidity: 74%

Dew Point: 70 °F

Location of MersinLocation

Past Weather in Mersin — Graph

°F

Mersin Temperature Yesterday

Maximum temperature yesterday: 91 °F (at 12:50 PM)
Minimum temperature yesterday: 75 °F (at 9:20 PM)
Average temperature yesterday: 83 °F

High & Low Weather Summary for the Past Weeks

 TemperatureHumidityPressure
High102 °F (Jun 19, 2:50 PM)100% (Jun 15, 2:20 AM)29.86 "Hg (Jun 15, 2:20 AM)
Low68 °F (Jun 14, 2:20 AM)20% (Jun 17, 1:20 PM)29.62 "Hg (Jun 24, 1:50 PM)
Average84 °F66%29.73 "Hg
* Reported Jun 13 7:20 AM — Jun 28 7:50 AM, Mersin, Weather by CustomWeather, © 2016

Note: Actual official high and low records may vary slightly from our data, if they occured in-between our weather recording intervals... More about our weather records

Advertising

Mersin Weather History for the Previous 24 Hours

Scroll right to see more
 ConditionsComfort  
Time TempWeatherWind HumidityBarometerVisibility
7:50 AM
Tue, Jun 28
79 °FScattered clouds.1 mph74%29.65 "HgN/A
7:20 AM77 °FScattered clouds.2 mph83%29.68 "HgN/A
6:50 AM75 °FScattered clouds.5 mph89%29.65 "HgN/A
6:20 AM75 °FPassing clouds.2 mph83%29.65 "HgN/A
5:50 AM75 °FPassing clouds.5 mph83%29.65 "HgN/A
5:20 AM73 °FPassing clouds.5 mph89%29.65 "HgN/A
4:50 AM75 °FPassing clouds.3 mph83%29.65 "HgN/A
4:20 AM73 °FPassing clouds.3 mph89%29.65 "HgN/A
3:50 AM73 °FPassing clouds.5 mph89%29.65 "HgN/A
3:20 AM73 °FPassing clouds.5 mph89%29.65 "HgN/A
2:50 AM75 °FPassing clouds.5 mph83%29.65 "HgN/A
2:20 AM75 °FPassing clouds.5 mph83%29.65 "HgN/A
1:50 AM75 °FPassing clouds.3 mph83%29.68 "HgN/A
1:20 AM75 °FPassing clouds.3 mph89%29.68 "HgN/A
12:50 AM75 °FPassing clouds.5 mph89%29.68 "HgN/A
12:20 AM75 °FPassing clouds.3 mph83%29.68 "HgN/A
11:50 PM
Mon, Jun 27
75 °FPassing clouds.6 mph83%29.68 "HgN/A
11:20 PM75 °FPassing clouds.5 mph83%29.68 "HgN/A
10:50 PM75 °FPassing clouds.5 mph83%29.68 "HgN/A
10:20 PM75 °FPassing clouds.3 mph83%29.68 "HgN/A
9:50 PM75 °FPassing clouds.2 mph83%29.68 "HgN/A
9:20 PM75 °FPassing clouds.2 mph83%29.68 "HgN/A
8:50 PM77 °FPassing clouds.2 mph79%29.68 "HgN/A
8:20 PM77 °FPassing clouds.7 mph79%29.68 "HgN/A
7:50 PM81 °FPassing clouds.8 mph70%29.65 "HgN/A
7:20 PM82 °FPassing clouds.10 mph62%29.65 "HgN/A
6:50 PM84 °FPassing clouds.14 mph51%29.65 "HgN/A
6:20 PM84 °FPassing clouds.13 mph48%29.65 "HgN/A
5:50 PM86 °FPassing clouds.14 mph49%29.65 "HgN/A
5:20 PM88 °FPassing clouds.15 mph43%29.65 "HgN/A
4:50 PM90 °FPassing clouds.15 mph41%29.65 "HgN/A
4:20 PM90 °FScattered clouds.15 mph46%29.65 "HgN/A
3:50 PM90 °FScattered clouds.14 mph59%29.65 "HgN/A
3:20 PM88 °FScattered clouds.13 mph66%29.68 "HgN/A
2:50 PM88 °FScattered clouds.16 mph70%29.68 "HgN/A
2:20 PM90 °FScattered clouds.15 mph67%29.68 "HgN/A
1:50 PM90 °FScattered clouds.14 mph67%29.68 "HgN/A
1:20 PM90 °FScattered clouds.13 mph67%29.68 "HgN/A
12:50 PM91 °FScattered clouds.12 mph63%29.68 "HgN/A
12:20 PM90 °FScattered clouds.7 mph67%29.68 "HgN/A
11:50 AM90 °FScattered clouds.7 mph63%29.68 "HgN/A
10:50 AM88 °FScattered clouds.7 mph66%29.71 "HgN/A
9:50 AM88 °FScattered clouds.5 mph66%29.71 "HgN/A
9:20 AM86 °FScattered clouds.5 mph70%29.71 "HgN/A
Weather by CustomWeather, © 2016

See weather overviewHow to use our weather pages